Вернуться в каталог

STARLINK-31840

АктивенСвязьVLEO
NORAD 60127·PAYLOAD·🇺🇸 United States

Запущен Jun 24, 2024 с Vandenberg Space Force Base

Loading…

Ближайшие Пролёты (ближайшие 24 часа)

TLE

СвежийSource: CelesTrak SupGP

Эпоха: Sep 14, 2026, 20:47 UTC

1 60127C 24118Q   26257.86645833  .00037792  00000+0  12149-2 0  2570
2 60127  53.1589 226.7486 0001448  95.3564  62.0267 15.31692090    13

Отслеживайте STARLINK-31840 в реальном времени с AllMySat

Download on the App Store